SCP
0 0 0 0 0 0 0 0 0 0 0 0 0 0 0 0 0 0 0 0 0 0 0 0 0 0 0 0 0 0 0 0 0 0 0 0 0 0 0 0 0 0 0 0 0 0 0 0 0
0 0 0 0 0 0 0 0 0 0 0 0 0 0 0 0 0 0 0 0 0 0 0 0 0 0 0 0 0 0 0 0 0 0 0 0 0 0 0 0 0 0 0 0 0 0 0 0 0
0 0 0 0 0 0 0 0 0 0 0 0 0 0 0 0 0 0 0 0 0 0 0 0 0 0 0 0 0 0 0 0 0 0 0 0 0 0 0 0 0 0 0 0 0 0 0 0 0
0 0 0 0 0 0 0 0 0 0 0 0 0 0 0 0 0 0 0 0 0 0 0 0 0 0 0 0 0 0 0 0 0 0 0 0 0 0 0 0 0 0 0 0 0 0 0 0 0
0 0 0 0 0 0 0 0 0 0 0 0 0 0 0 0 0 0 0 0 0 0 0 0 0 0 0 0 0 0 0 0 0 0 0 0 1 0 0 0 0 0 0 0 0 0 0 0 0
0 0 0 0 0 0 0 0 0 0 0 0 0 0 0 0 0 0 0 0 0 0 0 0 0 0 0 0 0 0 0 0 0 0 0 0 0 0 0 0 0 0 0 0 0 0 0 0 0
0 0 0 0 0 0 0 0 0 0 0 0 0 0 0 0 0 0 0 0 0 0 0 0 0 0 0 0 0 0 0 0 0 0 0 0 0 0 0 0 0 0 0 0 0 0 0 0 0
0 0 0 0 0 0 0 0 0 0 0 0 0 0 0 0 0 0 0 0 0 0 0 0 0 0 0 0 0 0 0 0 0 0 0 0 0 0 0 0 0 0 0 0 0 0 0 0 0
0 0 0 0 0 0 0 0 0 0 0 0 0 0 0 0 0 0 0 0 0 0 0 0 0 0 0 0 0 0 0 0 0 0 0 0 0 0 0 0 0 0 0 0 0 0 0 0 0
0 0 0 0 0 0 0 0 0 0 0 0 0 0 0 0 0 0 0 0 0 0 0 0 0 0 0 0 0 0 0 0 0 0 0 0 0 0 0 0 0 0 0 0 0 0 0 0 0
0 0 0 0 0 0 0 0 0 0 0 0 0 0 0 0 0 0 0 0 0 0 0 0 0 0 0 0 0 0 0 0 0 0 0 0 0 0 0 0 0 0 0 0 0 0 0 0 0
0 0 0 0 0 0 0 0 0 0 0 0 0 0 0 0 0 0 0 0 0 0 0 0 0 0 0 0 0 0 0 0 0 0 0 0 0 0 0 0 0 0 0 0 0 0 0 0 0
0 0 0 0 0 0 0 0 0 0 0 0 0 0 0 0 0 0 0 0 0 0 0 0 0 0 0 0 0 0 0 0 0 0 0 0 0 0 0 0 0 0 0 0 0 0 0 0 0
0 0 0 0 0 0 0 0 0 0 0 0 0 0 0 0 0 0 0 0 0 0 0 0 0 0 0 0 0 0 0 0 0 0 0 0 0 0 0 0 0 0 0 0 0 0 0 0 0
0 0 0 0 0 0 0 0 0 0 0 0 0 0 0 0 0 0 0 0 0 0 0 0 0 0 0 0 0 0 0 0 0 0 0 0 0 0 0 0 0 0 0 0 0 0 0 0 0
0 0 0 0 0 0 0 0 0 0 0 0 0 0 0 0 0 0 0 0 0 0 0 0 0 0 0 0 0 0 0 0 0 0 0 0 0 0 0 0 0 0 0 0 0 0 0 0 0
0 0 0 0 0 0 0 0 0 0 0 0 0 0 0 0 0 0 0 0 0 0 0 0 0 0 0 0 0 0 0 0 0 0 0 0 0 0 0 0 0 0 0 0 0 0 0 0 0
0 0 0 0 0 0 0 0 0 0 0 0 0 0 0 0 0 0 0 0 0 0 0 0 0 0 0 0 0 0 0 0 0 0 0 0 0 0 0 0 0 0 0 0 0 0 0 0 0
0 0 0 0 0 0 0 0 0 0 0 0 0 0 0 0 0 0 0 0 0 0 0 0 0 0 0 0 0 0 0 0 0 0 0 0 0 0 0 0 0 0 0 0 0 0 0 0 0
0 0 0 0 0 0 0 0 0 0 0 0 0 0 0 0 0 0 0 0 0 0 0 0 0 0 0 0 0 0 0 0 0 0 0 0 0 0 0 0 0 0 0 0 0 0 0 0 0
0 0 0 0 0 0 0 0 0 0 0 0 0 0 0 0 0 0 0 0 0 0 0 0 0 0 0 0 0 0 0 0 0 0 0 0 0 0 0 0 0 0 0 0 0 0 0 0 0
0 0 0 0 0 0 0 0 0 0 0 0 0 0 0 0 0 0 0 0 0 0 0 0 0 0 0 0 0 0 0 0 0 0 0 0 0 0 0 0 0 0 0 0 0 0 0 0 0
0 0 0 0 0 0 0 0 0 0 0 0 0 0 0 0 0 0 0 0 0 0 0 0 0 0 0 0 0 0 0 0 0 0 0 0 0 0 0 0 0 0 0 0 0 0 0 0 0
0 0 0 0 0 0 0 0 0 0 0 0 0 0 0 0 0 0 0 0 0 0 0 0 0 0 0 0 0 0 0 0 0 0 0 0 0 0 0 0 0 0 0 0 0 0 0 0 0
0 0 0 0 0 0 0 0 0 0 0 0 0 0 0 0 0 0 0 0 0 0 0 0 0 0 0 0 0 0 0 0 0 0 0 0 0 0 0 0 0 0 0 0 0 0 0 0 0
0 0 0 0 0 0 0 0 0 0 0 0 0 0 0 0 0 0 0 0 0 0 0 0 0 0 0 0 0 0 0 0 0 0 0 0 0 0 0 0 0 0 0 0 0 0 0 0 0
0 0 0 0 0 0 0 0 0 0 0 0 0 0 0 0 0 0 0 0 0 0 0 0 0 0 0 0 0 0 0 0 0 0 0 0 0 0 0 0 0 0 0 0 0 0 0 0 0
0 0 0 0 0 0 0 0 0 0 0 0 0 0 0 0 0 0 0 0 0 0 0 0 0 0 0 0 0 0 0 0 0 0 0 0 0 0 0 0 0 0 0 0 0 0 0 0 0
0 0 0 0 0 0 0 0 0 -0 0 0 0 0 0 0 0 0 0 0 0 0 0 0 0 0 0 0 0 0 0 0 0 0 0 0 0 0 0 0 0 0 0 0 0 0 0 0 0
0 0 0 0 0 0 0 0 0 -0 0 0 0 0 0 0 0 0 0 0 0 0 0 0 0 0 0 0 0 0 0 0 0 0 0 0 0 0 0 0 0 0 0 0 0 0 0 0 0
Wind_Speed
5 4 2 2 4 3 2 1 0 1 3 4 4 3 4 5 5 5 5 4 5 6 7 8 5 4 4 3 2 1 1 1 1 2 2 2 3 3 4 4 4 4 4 3 3 2 2 1 1
5 3 2 3 4 3 2 2 2 3 4 3 3 3 3 6 5 6 5 5 7 7 6 6 6 4 4 3 3 3 3 3 3 3 3 4 4 5 5 6 6 6 5 5 4 4 3 2 2
5 3 2 3 3 2 2 2 4 5 3 1 2 3 4 5 4 5 6 7 8 7 6 8 6 5 4 4 3 3 3 4 5 4 5 5 5 6 6 7 8 7 7 7 6 5 5 4 3
4 3 3 4 3 1 1 2 4 5 3 2 2 5 5 5 4 6 8 8 8 7 6 8 6 5 5 4 3 3 3 4 5 5 5 6 6 6 7 8 8 8 8 7 7 7 7 6 5
3 3 4 4 2 1 1 2 4 3 2 3 2 5 7 6 7 8 7 7 7 6 6 7 7 5 5 4 3 4 4 4 4 5 5 6 6 7 7 8 9 8 8 8 7 8 8 7 6
4 4 4 4 2 2 2 3 4 2 3 3 3 5 7 7 8 7 7 6 6 6 5 6 7 6 6 5 5 5 5 5 5 5 5 5 6 7 7 8 8 8 8 7 8 8 8 8 7
4 4 4 2 2 2 2 2 3 2 3 3 2 4 7 8 7 7 7 6 5 5 4 3 3 4 4 4 5 6 6 6 6 6 5 5 5 5 6 6 7 7 6 6 7 8 8 8 7
4 3 3 3 3 3 4 3 2 2 2 4 2 2 6 10 9 8 7 6 5 4 3 2 3 3 3 2 4 5 6 6 6 5 5 5 6 6 5 7 6 6 6 7 7 8 8 8 8
4 4 4 3 3 3 5 5 4 2 4 4 2 2 6 12 11 9 7 6 5 3 1 2 2 3 4 5 4 3 2 2 5 3 2 5 6 5 5 5 4 6 6 7 7 9 9 7 7
5 4 2 1 1 2 4 5 6 6 6 5 6 6 10 12 11 9 7 5 4 2 1 2 3 4 4 4 4 3 4 3 4 5 5 4 4 4 5 2 5 6 5 6 7 8 9 6 5
5 4 1 2 2 2 4 5 5 6 5 5 7 11 12 11 10 8 6 3 2 1 1 2 3 4 5 4 4 4 3 3 3 4 4 4 4 3 4 3 3 4 5 5 5 6 6 5 4
4 3 3 2 3 3 4 4 5 8 3 3 6 11 13 12 9 7 6 4 3 1 1 2 3 4 5 5 4 4 3 3 4 4 5 4 3 4 3 3 3 3 2 2 3 3 4 5 6
7 4 4 3 4 4 4 6 5 7 5 5 9 12 13 11 9 7 5 4 3 2 1 1 3 5 5 5 4 4 4 4 4 4 4 5 4 4 4 3 2 3 2 2 3 4 4 5 5
4 4 3 3 4 4 6 6 7 6 7 10 12 13 13 11 9 7 7 6 4 3 1 1 2 4 5 4 4 4 4 3 4 4 5 6 5 4 4 4 3 3 2 3 3 4 4 4 4
3 4 5 5 6 4 5 8 8 5 9 11 13 12 12 10 9 8 7 5 4 3 2 2 1 3 5 5 5 4 4 4 4 4 5 6 5 6 5 5 4 3 3 3 3 4 4 4 4
4 5 5 4 5 5 7 6 3 6 11 11 12 12 11 10 10 8 7 6 4 3 2 2 0 3 4 4 5 4 3 4 3 4 5 6 6 6 5 4 4 4 3 3 2 2 3 3 3
6 6 5 3 6 5 8 6 3 6 10 11 12 11 11 11 11 9 8 7 5 4 2 1 1 3 3 4 3 3 3 3 3 4 5 6 7 7 5 4 4 5 3 3 3 1 2 2 2
6 6 4 3 4 7 9 9 5 7 9 10 11 11 11 11 11 10 9 7 6 4 3 1 1 2 3 2 2 2 2 2 3 4 5 6 6 7 6 4 5 5 3 3 3 2 2 2 2
3 5 5 3 1 6 9 10 9 7 10 11 12 12 12 11 9 9 9 9 8 6 5 2 1 0 1 2 3 2 2 2 2 3 5 5 6 7 6 5 5 5 4 4 3 2 2 1 1
6 7 7 2 0 5 8 11 10 8 11 12 13 13 13 11 10 10 11 10 9 7 6 4 2 0 2 2 3 2 2 2 3 2 3 5 6 7 6 6 5 5 4 5 4 2 2 1 0
8 8 7 5 2 5 7 10 7 5 8 9 11 11 12 12 12 13 12 11 9 8 6 3 2 2 0 1 1 1 1 1 1 2 3 4 5 5 6 7 6 5 5 4 4 3 2 1 0
7 3 5 5 7 4 4 8 5 3 6 9 11 12 12 12 12 12 12 12 11 9 6 5 4 2 1 1 1 3 3 3 3 3 3 3 3 5 5 6 6 6 5 5 5 5 3 3 1
1 1 3 5 7 8 6 8 5 2 6 8 10 11 12 12 12 12 12 11 10 8 7 5 4 4 3 1 1 3 2 2 2 2 2 3 3 3 4 5 5 5 5 6 5 5 4 3 3
5 4 3 5 6 8 3 6 6 2 2 2 6 9 11 12 12 11 11 10 9 8 7 6 6 5 3 3 3 3 2 3 2 2 3 2 1 2 3 4 4 4 5 5 5 5 4 4 3
6 6 4 5 5 3 1 6 6 2 2 4 3 5 8 10 12 12 12 12 11 10 9 8 7 6 5 4 4 3 3 3 2 3 2 2 2 2 3 3 4 4 5 5 5 4 4 4 3
6 7 5 4 5 4 3 7 4 1 2 4 4 4 6 10 11 12 13 12 11 11 10 9 8 7 6 5 4 4 3 3 2 2 3 2 2 3 3 3 4 4 4 4 4 3 4 3 3
5 6 4 7 6 7 5 4 6 3 4 4 4 5 7 9 11 11 12 12 11 11 11 10 8 7 6 6 5 4 5 4 3 3 3 2 2 2 3 3 3 3 4 4 4 3 4 4 3
3 1 4 6 6 7 6 6 4 3 2 3 6 7 7 8 10 11 11 11 11 10 10 10 9 8 7 6 5 4 5 4 4 4 3 3 3 2 3 3 3 2 2 3 3 3 3 3 3
6 5 6 5 5 7 7 4 3 5 5 5 5 6 8 9 10 10 10 11 11 10 10 10 9 8 6 6 5 5 5 5 4 4 3 4 4 3 3 3 3 3 2 2 2 3 3 3 2
5 6 7 8 7 7 8 7 1 4 5 6 6 6 7 9 9 10 11 11 11 12 11 10 9 8 7 6 6 6 5 5 5 4 4 4 3 3 3 2 3 2 2 3 3 3 2 3 3
Wind_Direction
177 168 202 236 233 228 213 135 148 76 61 57 47 31 33 30 8 46 76 89 113 123 122 129 118 114 104 91 83 65 291 257 246 244 241 240 248 254 251 247 246 246 240 235 238 246 245 234 236
163 166 220 243 250 229 147 135 126 70 82 94 75 58 73 73 55 74 90 95 110 113 110 101 102 96 90 72 46 18 348 323 302 289 280 271 267 266 263 261 256 251 249 243 240 247 250 244 240
148 192 236 236 243 277 72 99 103 98 100 100 91 57 52 74 76 81 96 113 111 106 102 92 84 81 77 66 47 23 352 326 311 301 295 288 281 277 270 265 260 255 250 247 244 243 248 247 244
171 192 225 237 228 265 338 98 127 132 129 98 119 105 86 64 64 94 116 117 112 104 95 88 74 67 60 46 25 8 338 315 308 302 297 291 286 281 278 274 269 260 254 251 249 250 249 247 246
202 226 228 230 205 157 188 146 165 157 126 115 127 108 102 94 98 111 120 116 110 102 93 87 69 60 52 39 14 357 344 331 316 307 304 303 302 290 281 278 273 268 259 252 250 248 253 251 247
199 228 239 232 171 148 159 173 190 167 128 134 137 120 108 122 127 124 122 116 105 97 91 92 89 63 46 31 16 0 346 332 324 317 310 307 307 303 292 284 279 274 267 260 252 247 250 252 248
231 230 248 254 192 166 153 180 212 174 158 139 148 124 125 142 136 136 129 120 109 102 91 71 72 86 82 45 14 358 350 341 335 329 318 316 314 305 295 293 288 281 272 266 257 248 246 249 249
246 251 236 219 205 173 155 172 190 207 129 120 177 152 143 151 148 145 141 140 130 121 102 70 42 20 359 1 50 2 350 344 335 324 320 309 281 261 259 267 269 274 268 259 251 245 242 244 244
228 240 241 214 197 158 163 179 160 173 155 153 157 70 112 141 155 159 160 160 152 141 116 66 18 14 352 337 18 335 326 335 296 272 278 278 277 279 252 260 282 270 261 253 245 233 226 230 234
220 244 245 180 189 150 175 195 173 183 183 174 155 132 138 154 168 175 176 171 164 155 100 28 360 6 353 349 342 329 323 340 317 328 323 304 308 301 292 221 251 261 255 245 232 228 213 215 224
218 260 242 192 194 199 190 190 195 208 206 200 181 161 159 168 177 181 179 168 143 130 91 23 4 6 353 352 342 339 330 331 316 334 325 309 304 291 284 279 237 237 233 237 212 215 211 206 219
214 233 237 192 174 201 202 193 202 222 222 168 169 160 165 176 181 183 182 172 166 165 88 27 360 356 358 354 346 328 333 332 334 339 332 328 322 309 311 293 297 280 254 244 244 234 217 214 216
218 205 207 203 196 217 218 214 222 220 201 169 157 165 174 181 182 183 183 175 177 165 157 46 350 353 359 357 331 336 347 340 349 345 335 337 325 321 316 299 298 287 279 251 244 240 229 227 225
205 201 205 210 213 216 221 222 225 211 181 174 172 177 182 184 187 185 189 190 188 177 146 99 352 359 346 343 342 353 348 348 342 353 347 342 337 328 321 309 300 297 282 278 257 243 237 232 225
174 202 210 210 216 212 225 228 221 194 180 182 184 184 185 188 191 199 195 195 187 164 148 108 354 349 346 350 351 344 343 347 350 355 346 350 347 334 327 323 314 308 290 269 262 254 241 230 222
191 220 223 184 205 200 230 250 155 172 189 191 193 186 190 194 201 201 194 193 177 165 152 123 344 342 353 350 340 346 353 356 356 359 355 355 355 348 343 335 329 321 309 293 271 256 243 232 225
204 228 235 188 195 207 231 259 143 177 200 201 199 196 194 196 203 198 192 189 178 171 183 157 49 346 353 348 334 339 353 360 359 4 6 359 359 353 354 347 338 330 320 311 295 274 266 241 231
210 232 241 244 174 218 237 255 220 189 209 215 206 205 202 206 201 192 189 183 175 176 192 171 110 330 352 335 325 344 350 356 5 5 12 3 356 359 357 349 352 346 337 331 313 299 273 266 246
242 252 267 292 169 238 254 266 262 215 217 221 214 210 210 211 197 185 184 182 181 181 195 194 231 66 344 342 333 342 360 348 1 9 11 358 359 359 4 354 0 355 356 349 334 309 277 272 259
246 260 270 280 153 257 276 274 268 244 228 226 221 213 211 205 192 187 190 189 190 187 200 205 194 87 7 7 349 350 342 337 1 346 5 2 2 0 359 2 0 7 359 6 360 347 323 336 284
241 259 283 300 280 237 281 271 249 216 223 225 227 226 214 205 199 191 192 191 190 192 198 201 182 174 141 34 343 317 301 277 300 358 9 4 1 6 2 5 1 2 4 14 8 5 354 327 283
245 283 278 270 266 272 279 295 278 212 224 219 216 215 212 202 201 194 190 189 194 191 189 197 183 190 134 224 328 338 335 344 360 343 358 359 11 12 7 7 3 5 9 8 8 21 359 346 346
294 29 255 257 267 276 245 273 284 195 240 218 207 207 206 199 196 194 192 189 190 182 182 191 183 190 185 231 281 288 316 337 340 330 349 346 28 13 14 5 5 8 11 14 12 11 7 2 356
151 180 187 221 251 264 282 272 282 233 248 214 194 201 200 196 193 190 185 182 181 179 180 186 190 199 201 226 246 274 309 306 324 334 351 344 25 18 30 3 1 6 12 13 9 7 15 7 4
204 238 241 229 230 265 115 260 269 314 282 270 249 209 196 192 189 184 180 182 181 182 185 187 193 202 206 220 240 249 269 291 301 323 352 332 348 9 21 357 357 7 8 7 3 7 11 16 7
208 242 267 288 292 303 224 254 279 352 271 264 249 223 191 188 189 186 184 184 183 184 187 192 198 207 207 220 234 245 245 261 287 303 307 312 328 351 353 343 348 356 352 353 1 352 14 7 8
200 226 292 288 290 286 273 272 284 219 237 224 210 197 191 187 187 188 185 186 185 186 188 194 200 209 211 221 233 241 243 250 263 263 279 293 302 315 314 319 318 345 344 346 345 355 3 357 357
308 204 210 256 289 291 287 280 287 312 283 219 207 203 194 187 187 188 185 187 187 187 190 194 204 212 213 221 229 240 243 241 252 265 272 288 294 301 297 293 301 320 324 332 340 338 359 341 14
174 201 234 255 272 283 296 308 359 312 306 267 234 214 200 193 191 189 187 187 186 186 189 194 201 208 213 220 224 229 230 237 238 247 257 266 269 262 268 287 293 306 315 323 337 330 343 328 341
246 244 234 257 259 258 282 288 19 275 284 268 253 226 209 201 196 193 189 187 186 189 192 197 200 203 209 216 218 225 223 227 236 231 241 251 260 275 271 273 277 288 305 318 326 319 314 322 327